Weather History for Cairns, QU

Change the Weather History Date:

Thursday, April 12, 2012

  Actual Average Record
Temperature  
Mean Temperature 74 °F -  
Max Temperature 77 °F 83 °F 87 °F (2003)
Min Temperature 71 °F 70 °F 66 °F (2008)
Cooling Degree Days 9    
Growing Degree Days 24 (Base 50)    
Moisture  
Dew Point 71 °F    
Average Humidity 91    
Maximum Humidity 100    
Minimum Humidity 83    
Precipitation  
Precipitation 2.20 in 0.23 in - ()
Sea Level Pressure  
Sea Level Pressure 29.97 in    
Wind  
Wind Speed 14 mph ()    
Max Wind Speed 24 mph    
Max Gust Speed 34 mph    
Visibility 4.1 miles    
Events Rain    
Averages and records for this station are not official NWS values.
T = Trace of Precipitation, MM = Missing Value Source: Averaged Metar Reports

Daily Weather History Graph

Daily Weather History Graph

Search for Another Location

Airport:

Trip Planner

Search our weather history database for the weather conditions in past years. The results will help you decide how hot, cold, wet, or windy it might be!

Date:

Astronomy

Apr. 12, 2012 Rise Set
Actual Time 6:24 AM AEST 6:10 PM AEST
Civil Twilight 6:03 AM AEST 6:32 PM AEST
Nautical Twilight 5:37 AM AEST 6:57 PM AEST
Astronomical Twilight 5:12 AM AEST 7:22 PM AEST
Moon 11:17 PM AEST (4/12) 11:41 AM AEST (4/12)
Length of Visible Light 12h 29m
Length of Day
11h 45m
Waning Gibbous, 65% of the Moon is Illuminated
Apr 12
Waning Gibbous
Apr 13
Last Quarter
Apr 21
New
Apr 29
First Quarter
May 6
Full

Hourly Weather History & Observations

Time (AEST) Temp. Dew Point Humidity Pressure Visibility Wind Dir Wind Speed Gust Speed Precip Events Conditions
12:00 AM 74 °F 71 °F 86% 29.97 in 6 mi SSE 11.5 mph - -   Overcast
12:00 AM 75.2 °F 71.6 °F 89% 29.95 in 5.0 mi SSE 11.5 mph 26.5 mph N/A Rain Light Rain Showers
12:30 AM 73.4 °F 71.6 °F 94% 29.95 in 1.9 mi South 12.7 mph - N/A Rain Rain Showers
12:36 AM 73.4 °F 69.8 °F 88% 29.95 in 3.1 mi SSE 17.3 mph 34.5 mph N/A Rain Rain Showers
1:00 AM 73 °F 70 °F 88% 29.97 in - SSE 16.1 mph - -  
1:00 AM 73.4 °F 69.8 °F 88% 29.95 in 3.1 mi SSE 16.1 mph - N/A Rain Rain Showers
1:30 AM 73.4 °F 71.6 °F 94% 29.95 in 6.2 mi SSE 17.3 mph - N/A   Scattered Clouds
2:00 AM 73.4 °F 69.8 °F 88% 29.95 in 5.0 mi South 11.5 mph - N/A Rain Light Rain Showers
2:30 AM 71.6 °F 69.8 °F 94% 29.95 in 5.0 mi South 13.8 mph - N/A Rain Light Rain Showers
3:00 AM 73 °F 70 °F 88% 29.94 in - South 12.7 mph - -   Overcast
3:00 AM 73.4 °F 69.8 °F 88% 29.92 in 3.1 mi South 12.7 mph - N/A Rain Rain Showers
3:30 AM 73.4 °F 69.8 °F 88% 29.92 in 6.2 mi South 15.0 mph - N/A   Scattered Clouds
3:55 AM 71.6 °F 71.6 °F 100% 29.92 in 3.1 mi South 13.8 mph - N/A Rain Rain Showers
4:00 AM 72 °F 71 °F 95% 29.95 in - South 13.8 mph - -  
4:00 AM 71.6 °F 71.6 °F 100% 29.92 in 3.1 mi South 13.8 mph - N/A Rain Light Rain Showers
4:30 AM 71.6 °F 69.8 °F 94% 29.92 in 3.1 mi South 15.0 mph - N/A Rain Rain Showers
4:41 AM 71.6 °F 69.8 °F 94% 29.92 in 6.2 mi South 15.0 mph - N/A   Mostly Cloudy
5:00 AM 71.6 °F 69.8 °F 94% 29.92 in 5.0 mi South 13.8 mph - N/A   Scattered Clouds
5:18 AM 71.6 °F 69.8 °F 94% 29.95 in 3.1 mi South 13.8 mph - N/A Rain Rain Showers
5:30 AM 71.6 °F 69.8 °F 94% 29.95 in 3.1 mi South 13.8 mph - N/A Rain Rain Showers
5:46 AM 71.6 °F 69.8 °F 94% 29.95 in 6.2 mi South 10.4 mph - N/A   Scattered Clouds
6:00 AM 73 °F 70 °F 86% 29.94 in 12 mi South 13.8 mph - - Rain Light Rain Showers
6:00 AM 73.4 °F 69.8 °F 88% 29.95 in 6.2 mi South 13.8 mph - N/A   Scattered Clouds
6:30 AM 73.4 °F 69.8 °F 88% 29.95 in 6.2 mi South 12.7 mph - N/A   Scattered Clouds
6:56 AM 73.4 °F 71.6 °F 94% 29.95 in 1.2 mi South 10.4 mph - N/A Rain Rain Showers
6:59 AM 73.4 °F 71.6 °F 94% 29.98 in 6.2 mi SSE 11.5 mph - N/A   Mostly Cloudy
7:30 AM 73.4 °F 71.6 °F 94% 29.95 in 3.7 mi South 13.8 mph - N/A Rain Light Rain Showers
7:48 AM 75.2 °F 71.6 °F 89% 29.98 in 6.2 mi SSE 17.3 mph 28.8 mph N/A   Mostly Cloudy
8:00 AM 75.2 °F 71.6 °F 89% 29.98 in 6.2 mi SSE 19.6 mph - N/A   Scattered Clouds
8:30 AM 75.2 °F 71.6 °F 89% 29.98 in 3.7 mi South 13.8 mph - N/A Rain Light Rain Showers
8:37 AM 75.2 °F 71.6 °F 89% 29.98 in 6.2 mi SE 21.9 mph 33.4 mph N/A   Mostly Cloudy
9:00 AM 75.2 °F 71.6 °F 89% 29.98 in 6.2 mi SSE 15.0 mph - N/A   Mostly Cloudy
9:30 AM 77.0 °F 71.6 °F 83% 29.98 in 6.2 mi SSE 17.3 mph - N/A   Mostly Cloudy
9:43 AM 77.0 °F 71.6 °F 83% 29.98 in 3.1 mi SSE 11.5 mph - N/A Rain Light Rain Showers
10:00 AM 76 °F 72 °F 84% 30.01 in - SSE 17.3 mph - -  
10:00 AM 77.0 °F 71.6 °F 83% 29.98 in 6.2 mi SSE 17.3 mph - N/A   Mostly Cloudy
10:22 AM 75.2 °F 73.4 °F 94% 29.98 in 1.9 mi SSE 16.1 mph - N/A Rain Light Rain Showers
10:30 AM 75.2 °F 73.4 °F 94% 29.98 in 3.1 mi SSE 19.6 mph - N/A Rain Light Rain Showers
11:00 AM 75.2 °F 71.6 °F 89% 29.98 in 3.7 mi SSE 15.0 mph - N/A   Mostly Cloudy
11:15 AM 75.2 °F 71.6 °F 89% 29.98 in 6.2 mi SSE 17.3 mph - N/A   Mostly Cloudy
11:27 AM 75.2 °F 71.6 °F 89% 29.98 in 2.5 mi SSE 16.1 mph - N/A Rain Light Rain Showers
11:30 AM 75.2 °F 71.6 °F 89% 29.98 in 2.5 mi SSE 18.4 mph - N/A Rain Light Rain Showers
11:52 AM 73.4 °F 73.4 °F 100% 29.98 in 1.2 mi SE 15.0 mph - N/A Rain Rain Showers
12:00 PM 74 °F 72 °F 94% 29.99 in 1 mi SE 17.3 mph - - Rain Heavy Rain Showers
12:00 PM 73.4 °F 73.4 °F 100% 29.98 in 0.9 mi SE 17.3 mph - N/A Rain Rain Showers
12:18 PM 73.4 °F 71.6 °F 94% 29.98 in 6.2 mi SSE 19.6 mph - N/A   Mostly Cloudy
12:30 PM 75.2 °F 71.6 °F 89% 29.98 in 5.6 mi SSE 19.6 mph - N/A Rain Light Rain Showers
12:40 PM 75.2 °F 71.6 °F 89% 29.95 in 5.6 mi SSE 19.6 mph - N/A Rain Light Rain Showers
12:45 PM 75.2 °F 71.6 °F 89% 29.95 in 1.9 mi SSE 18.4 mph - N/A Rain Light Rain Showers
12:54 PM 75.2 °F 71.6 °F 89% 29.95 in 3.1 mi SSE 19.6 mph 34.5 mph N/A Rain Light Rain Showers
1:00 PM 74 °F 71 °F 89% 29.97 in - SE 24.2 mph - -  
1:00 PM 73.4 °F 71.6 °F 94% 29.95 in 3.1 mi SE 24.2 mph - N/A Rain Light Rain Showers
1:10 PM 73.4 °F 71.6 °F 94% 29.95 in 6.2 mi SSE 19.6 mph 31.1 mph N/A   Mostly Cloudy
2:00 PM 75.2 °F 69.8 °F 83% 29.95 in 3.7 mi SSE 23.0 mph - N/A   Mostly Cloudy
2:12 PM 73.4 °F 71.6 °F 94% 29.95 in 3.7 mi SSE 21.9 mph - N/A Rain Light Rain Showers
2:30 PM 73.4 °F 71.6 °F 94% 29.95 in 3.7 mi SSE 19.6 mph - N/A Rain Light Rain Showers
3:00 PM 73 °F 72 °F 94% 29.96 in 6 mi SSE 19.6 mph - - Rain Light Rain Showers
3:00 PM 73.4 °F 71.6 °F 94% 29.95 in 6.2 mi SSE 19.6 mph - N/A   Mostly Cloudy
3:30 PM 73.4 °F 71.6 °F 94% 29.95 in 3.1 mi South 13.8 mph - N/A Rain Light Rain Showers
4:00 PM 74 °F 71 °F 87% 29.96 in - SSE 11.5 mph - -  
4:00 PM 73.4 °F 71.6 °F 94% 29.95 in 3.7 mi SSE 11.5 mph - N/A Rain Light Rain Showers
4:30 PM 73.4 °F 71.6 °F 94% 29.98 in 3.1 mi SE 15.0 mph 27.6 mph N/A Rain Light Rain Showers
5:00 PM 73.4 °F 69.8 °F 88% 29.98 in 3.1 mi SSE 12.7 mph - N/A Rain Light Rain Showers
5:30 PM 73.4 °F 71.6 °F 94% 29.98 in 3.7 mi SSE 13.8 mph - N/A Rain Light Rain Showers
6:00 PM 73 °F 71 °F 92% 30.00 in 3 mi SSE 15.0 mph - - Rain Light Rain Showers
6:00 PM 73.4 °F 71.6 °F 94% 29.98 in 3.1 mi SSE 15.0 mph - N/A Rain Light Rain Showers
6:10 PM 71.6 °F 71.6 °F 100% 30.01 in 1.2 mi SSE 16.1 mph - N/A Rain Rain Showers
6:30 PM 71.6 °F 69.8 °F 94% 30.01 in 3.1 mi SSE 11.5 mph - N/A Rain Light Rain Showers
7:00 PM 72 °F 71 °F 95% 30.02 in - SSE 11.5 mph - -  
7:00 PM 71.6 °F 71.6 °F 100% 30.01 in 3.1 mi SSE 11.5 mph - N/A Rain Light Rain Showers
7:30 PM 71.6 °F 71.6 °F 100% 30.01 in 3.1 mi SSE 15.0 mph - N/A Rain Light Rain Showers
8:00 PM 71.6 °F 69.8 °F 94% 30.01 in 6.2 mi South 15.0 mph - N/A   Mostly Cloudy
8:21 PM 73.4 °F 69.8 °F 88% 30.01 in 2.5 mi SSW 12.7 mph - N/A Rain Light Rain Showers
8:30 PM 71.6 °F 69.8 °F 94% 30.01 in 3.1 mi South 11.5 mph - N/A Rain Light Rain Showers
8:44 PM 71.6 °F 71.6 °F 100% 30.04 in 1.9 mi SSE 16.1 mph - N/A Rain Rain Showers
9:00 PM 73 °F 70 °F 89% 30.04 in 6 mi South 15.0 mph - - Rain Light Rain Showers
9:00 PM 73.4 °F 69.8 °F 88% 30.04 in 6.2 mi South 15.0 mph - N/A Rain Light Rain Showers
9:18 PM 73.4 °F 69.8 °F 88% 30.04 in 3.1 mi South 13.8 mph - N/A Rain Light Rain Showers
9:26 PM 73.4 °F 69.8 °F 88% 30.04 in 3.1 mi SE 20.7 mph 33.4 mph N/A Rain Light Rain Showers
9:57 PM 73.4 °F 69.8 °F 88% 30.04 in 3.1 mi SSE 20.7 mph 32.2 mph N/A Rain Light Rain Showers
10:30 PM 73.4 °F 69.8 °F 88% 30.04 in 6.2 mi SSE 18.4 mph - N/A   Mostly Cloudy
10:44 PM 71.6 °F 69.8 °F 94% 30.04 in 3.1 mi South 16.1 mph - N/A Rain Light Rain Showers
11:00 PM 73.4 °F 69.8 °F 88% 30.04 in 1.2 mi South 13.8 mph - N/A Rain Light Rain Showers
11:32 PM 71.6 °F 69.8 °F 94% 30.04 in 3.1 mi SSE 15.0 mph - N/A Rain Light Rain Showers